Saint Johnsbury, VT

9:56 PM EDT on July 24, 2016 (GMT -0400)
St. Johnsbury

Weather History for K1V4 - November, 2011

Change the Weather History Date:

Saturday, November 5, 2011

  Actual Average Record
Temperature  
Mean Temperature 35 °F 40 °F  
Max Temperature 46 °F 49 °F 71 °F (2015)
Min Temperature 23 °F 31 °F 16 °F (1951)
Degree Days  
Heating Degree Days 30 25  
Month to date heating degree days 133 120  
Since 1 July heating degree days 800 907  
Cooling Degree Days 0 0  
Month to date cooling degree days 0  
Year to date cooling degree days 433  
Moisture  
Dew Point 23 °F    
Average Humidity 65    
Maximum Humidity 92    
Minimum Humidity 37    
Precipitation  
Precipitation 0.00 in 0.11 in 2.17 in (1982)
Month to date precipitation 0.00 0.61  
Year to date precipitation 45.81 33.63  
Sea Level Pressure  
Sea Level Pressure 30.43 in    
Wind  
Wind Speed - (North)    
Max Wind Speed -    
Max Gust Speed -    
T = Trace of Precipitation, MM = Missing Value Source: NWS Daily Summary

Daily Weather History Graph

Daily Weather History Graph

Search for Another Location

Airport or City:

Trip Planner

Search our weather history database for the weather conditions in past years. The results will help you decide how hot, cold, wet, or windy it might be!

Date:

Astronomy

Nov. 05, 2011 Rise Set
Actual Time 7:30 AM EDT 5:32 PM EDT
Civil Twilight 6:59 AM EDT 6:02 PM EDT
Nautical Twilight 6:25 AM EDT 6:37 PM EDT
Astronomical Twilight 5:51 AM EDT 7:11 PM EDT
Moon 2:58 PM EDT (11/5) 2:27 AM EDT (11/5)
Length of Visible Light 11h 03m
Length of Day
10h 02m
Waxing Gibbous, 78% of the Moon is Illuminated
Nov 5
Waxing Gibbous
Nov 10
Full
Nov 18
Last Quarter
Nov 25
New
Dec 2
First Quarter

Hourly Weather History & Observations

Time (EDT) Temp. Dew Point Humidity Pressure Visibility Wind Dir Wind Speed Gust Speed Precip Events Conditions
12:54 AM 28.0 °F 25.0 °F 88% 30.32 in - North - - N/A   Unknown
1:54 AM 27.0 °F 23.0 °F 85% 30.33 in - North - - N/A   Unknown
2:54 AM 26.1 °F 24.1 °F 92% 30.34 in - North - - N/A   Unknown
3:54 AM 25.0 °F 23.0 °F 92% 30.35 in - North - - N/A   Unknown
4:54 AM 25.0 °F 23.0 °F 92% 30.38 in - North - - N/A   Unknown
5:54 AM 24.1 °F 21.9 °F 91% 30.40 in - North - - N/A   Unknown
6:54 AM 24.1 °F 21.9 °F 91% 30.42 in - North - - N/A   Unknown
7:54 AM 24.1 °F 21.9 °F 91% 30.44 in - North - - N/A   Unknown
8:54 AM 26.1 °F 23.0 °F 88% 30.47 in - North - - N/A   Unknown
9:54 AM 33.1 °F 26.1 °F 75% 30.47 in - North - - N/A   Unknown
10:54 AM 36.0 °F 26.1 °F 67% 30.48 in - North - - N/A   Unknown
11:54 AM 39.9 °F 25.0 °F 55% 30.46 in - North - - N/A   Unknown
12:54 PM 44.1 °F 25.0 °F 47% 30.44 in - North - - N/A   Unknown
1:54 PM 44.1 °F 23.0 °F 43% 30.43 in - North - - N/A   Unknown
2:54 PM 45.0 °F 21.9 °F 40% 30.43 in - North - - N/A   Unknown
3:54 PM 45.0 °F 19.9 °F 37% 30.43 in - North - - N/A   Unknown
4:54 PM 45.0 °F 19.9 °F 37% 30.43 in - North - - N/A   Unknown
5:54 PM 37.9 °F 23.0 °F 55% 30.43 in - North - - N/A   Unknown
6:54 PM 34.0 °F 24.1 °F 67% 30.45 in - North - - N/A   Unknown
7:54 PM 30.9 °F 24.1 °F 76% 30.46 in - North - - N/A   Unknown
8:54 PM 28.9 °F 24.1 °F 82% 30.47 in - North - - N/A   Unknown
9:54 PM 28.0 °F 23.0 °F 81% 30.48 in - North - - N/A   Unknown
10:54 PM 27.0 °F 21.9 °F 81% 30.48 in - North - - N/A   Unknown
11:54 PM 25.0 °F 21.9 °F 88% 30.47 in - North - - N/A   Unknown